Location: Allos
(44.2333°N, 6.6333°E)
Time: 23:43:52
(UTC+00:00)

SAR-Lupe-4 - Pass Details

Date: 19 April 2021
Orbit: 483 x 483 km, 98.2° (Epoch: 13 April)

Event Time Altitude Azimuth Distance (km) Brightness Sun altitude
Rises 18:54:23 0° 12° (NNE) 2,559 7.4 -6.1°
Maximum altitude 19:00:03 82° 284° (WNW) 495 3.7 -7.1°
Drops below altitude 10° 19:03:37 10° 198° (SSW) 1,659 6.2 -7.7°
Sets 19:05:40 0° 197° (SSW) 2,534 7.1 -8.0°
